SOYUZ-TMA 20M

Last updated on Sun Aug 21 2016 18:37:44 GMT+0100 (British Summer Time)

1 41391U 16018A 16233.75555561 .00003708 00000-0 61168-4 0 9992 2 41391 51.6453 95.8301 0002009 148.3825 329.3929 15.55066035 15034
UTC large
Height (km)
Speed (km/s)
/
Latitude / Longitude
Inclination (degrees)
Orbital Period (minutes)
Azimuth
Elevation
Range (km)
Doppler Factor

Next 0 passes for location: London (51.5072 / 0.1276)

Sorry there are no passes over London.